CST,Max TemperatureF,Mean TemperatureF,Min TemperatureF,Max Dew PointF,MeanDew PointF,Min DewpointF,Max Humidity, Mean Humidity, Min Humidity, Max Sea Level PressureIn, Mean Sea Level PressureIn, Min Sea Level PressureIn, Max VisibilityMiles, Mean VisibilityMiles, Min VisibilityMiles, Max Wind SpeedMPH, Mean Wind SpeedMPH, Max Gust SpeedMPH,PrecipitationIn, CloudCover, Events, WindDirDegrees
2013-12-1,33,22,12,25,21,12,100,87,70,30.17,30.08,29.91,10,6,4,4,1,,0.00,2,,327
2013-12-2,37,29,21,32,29,19,100,92,75,29.90,29.69,29.57,7,4,0,14,5,20,0.09,5,Rain-Snow,125
2013-12-3,33,32,30,34,32,30,100,99,93,29.76,29.66,29.56,5,2,0,10,6,16,0.08,8,Fog-Rain-Snow,88
2013-12-4,30,20,10,30,25,7,100,96,79,29.74,29.59,29.44,10,5,1,22,9,29,0.17,8,Snow,8
2013-12-5,10,4,-2,7,-1,-8,85,80,67,30.33,30.06,29.72,10,8,3,20,14,26,0.00,3,Snow,266
2013-12-6,1,-4,-9,-6,-10,-15,85,78,66,30.62,30.47,30.33,10,10,10,15,9,18,0.00,0,,271
2013-12-7,0,-6,-13,-8,-13,-17,85,76,60,30.70,30.63,30.54,10,10,10,9,4,,0.00,0,,255
2013-12-8,10,4,-2,7,3,-8,92,87,78,30.54,30.23,30.01,10,3,1,13,5,,0.00,8,Snow,86
2013-12-9,8,0,-7,7,-7,-13,92,80,66,30.10,30.03,29.85,10,9,2,20,8,29,0.00,1,Snow,249
2013-12-10,14,8,1,10,1,-6,92,78,66,30.24,29.99,29.74,10,8,2,26,11,33,0.00,4,Snow,258
2013-12-11,5,-2,-9,0,-12,-17,84,72,60,30.54,30.43,30.24,10,10,10,16,10,21,0.00,1,,270
2013-12-12,17,8,0,10,5,-6,92,77,63,30.28,30.20,30.12,10,10,10,8,4,,0.00,2,,244
2013-12-13,14,12,10,9,8,5,92,85,73,30.25,30.16,30.10,10,10,4,15,7,21,0.00,6,Snow,50
2013-12-14,14,6,-2,7,4,-8,92,83,72,30.24,30.14,30.06,10,7,2,18,8,23,0.00,7,Snow,326
2013-12-15,3,0,-2,-6,-8,-9,78,70,61,30.13,30.10,30.07,10,10,10,13,7,,0.00,5,,323
2013-12-16,24,12,0,19,4,-9,100,81,66,30.09,29.99,29.90,10,8,0,15,6,20,0.01,6,Snow,180
2013-12-17,30,16,3,25,15,1,100,78,63,30.10,29.98,29.86,10,10,7,28,14,34,0.00,3,Snow,276
2013-12-18,37,18,0,27,16,-2,100,81,60,30.06,29.78,29.63,10,10,10,12,4,18,0.00,0,,213
2013-12-19,24,20,15,19,12,10,93,81,73,30.04,29.96,29.78,10,10,10,16,9,21,0.00,3,,22
2013-12-20,17,16,15,12,12,10,86,81,79,29.99,29.92,29.83,10,10,4,13,8,18,0.00,8,Snow,28
2013-12-21,21,18,14,16,13,10,93,84,74,29.96,29.90,29.83,10,10,7,10,4,,0.00,8,,357
2013-12-22,17,9,1,16,8,-4,93,86,78,30.22,30.03,29.91,10,8,1,16,9,21,0.00,7,Snow,301
2013-12-23,1,-4,-9,-4,-10,-15,85,76,66,30.48,30.37,30.22,10,9,4,16,12,22,0.00,6,Snow,277
2013-12-24,8,-4,-16,3,-12,-20,85,72,48,30.47,30.34,30.18,10,9,1,15,4,20,0.02,3,Snow,160
2013-12-25,28,19,10,23,12,5,93,84,68,30.13,30.07,30.02,10,8,1,23,5,30,0.00,5,Snow,267
2013-12-26,23,14,5,21,13,1,100,93,85,30.15,30.10,30.05,10,7,0,4,1,,0.00,6,Fog-Snow,75
2013-12-27,37,22,6,28,22,5,100,87,65,30.15,30.01,29.89,10,8,0,12,4,24,0.00,1,Fog,231
2013-12-28,42,28,15,34,25,14,100,88,57,29.97,29.80,29.63,10,6,0,22,4,33,0.00,3,Fog-Snow,247
2013-12-29,19,2,-14,18,-9,-20,93,71,55,30.28,30.21,29.96,10,10,5,23,16,30,0.00,3,,308
2013-12-30,0,-9,-18,-6,-12,-24,92,83,76,30.27,30.20,30.14,10,6,1,7,2,,0.00,5,Snow,109
2013-12-31,0,-6,-13,-8,-13,-17,92,79,71,30.38,30.28,30.17,10,10,7,8,5,,0.00,1,,305